This is the latest recevied weather packets stored in our database for station/object EFHK. If no packets are shown the sender has not sent any weather packets the latest 1 day(s).
| Time | Temp. | Humidity | Pressure | Rain* | Wind** | Luminosity | Snow |
|---|---|---|---|---|---|---|---|
| 1836274570 | 15° C | 93% | 1009 hPa | - | 4.47 m/s, 190° | - | - |
| 1836274422 | 15° C | 93% | 1008 hPa | - | 4.02 m/s, 180° | - | - |
| 1836273969 | 15° C | 93% | 1009 hPa | - | 4.47 m/s, 190° | - | - |
| 1778052201 | 8.89° C | 39% | 1012 hPa | - | 4.47 m/s, 280° | - | - |
| 1778051602 | 6.67° C | 48% | 1012 hPa | - | 4.02 m/s, 280° | - | - |
| 1778051003 | 6.67° C | 48% | 1012 hPa | - | 4.02 m/s, 280° | - | - |
| 1778050398 | 6.67° C | 48% | 1012 hPa | - | 4.02 m/s, 280° | - | - |
| 1778049799 | 6.67° C | 52% | 1012 hPa | - | 2.68 m/s, 250° | - | - |
| 1778049206 | 6.67° C | 52% | 1012 hPa | - | 2.68 m/s, 250° | - | - |
| 1778048601 | 6.67° C | 52% | 1012 hPa | - | 2.68 m/s, 250° | - | - |
| 1778048000 | 6.67° C | 52% | 1011 hPa | - | 3.58 m/s, 270° | - | - |
| 1778047405 | 6.67° C | 52% | 1011 hPa | - | 3.58 m/s, 270° | - | - |
| 1778046801 | 6.67° C | 52% | 1011 hPa | - | 3.58 m/s, 270° | - | - |
| 1778046206 | 5.56° C | 60% | 1011 hPa | - | 4.47 m/s, 280° | - | - |
| 1778045599 | 5.56° C | 60% | 1011 hPa | - | 4.47 m/s, 280° | - | - |
| 1778045001 | 5.56° C | 60% | 1011 hPa | - | 4.47 m/s, 280° | - | - |
| 1778044400 | 3.89° C | 64% | 1011 hPa | - | 4.02 m/s, 270° | - | - |
| 1778043803 | 3.89° C | 64% | 1011 hPa | - | 4.02 m/s, 270° | - | - |
| 1778043200 | 3.89° C | 64% | 1011 hPa | - | 4.02 m/s, 270° | - | - |
| 1778042602 | 2.78° C | 69% | 1010 hPa | - | 3.58 m/s, 270° | - | - |
| 1778042001 | 2.78° C | 69% | 1010 hPa | - | 3.58 m/s, 270° | - | - |
| 1778041402 | 2.78° C | 69% | 1010 hPa | - | 3.58 m/s, 270° | - | - |
| 1778040803 | 1.67° C | 74% | 1010 hPa | - | 2.68 m/s, 240° | - | - |
| 1778040321 | 1.67° C | 74% | 1010 hPa | - | 2.68 m/s, 240° | - | - |
| 1778039599 | 1.67° C | 74% | 1010 hPa | - | 2.68 m/s, 240° | - | - |
* Rain since midnight (hover to see other rain measurements)
** Current wind speed in m/s (hover to see current wind gust speed)